Home > Weather > Midland > Past weeks

Flag for USA Weather for the Past 2 Weeks in Midland, Texas, USA

Now
58 °F

Overcast.


Feels Like: 56 °F
Forecast: 49 / 58 °F
Wind: 10 mph from Northeast

Location: Midland - Midland Airpark

Current Time: May 1, 2016 at 4:21:55 PM

Latest Report: May 1, 2016 at 3:55 PM


Visibility: 10 mi

Pressure: 30.09 "Hg (27.21 "Hg at 847m altitude)

Humidity: 44%

Dew Point: 37 °F

Location of MidlandLocation

Historic Weather in Midland — Graph

°F

Midland Temperature Yesterday

Maximum temperature yesterday: 81 °F (at 6:15 PM)
Minimum temperature yesterday: 52 °F (at 6:55 AM)
Average temperature yesterday: 67 °F

High & Low Weather Summary for the Past Weeks

 TemperatureHumidityPressure
High92 °F (Apr 25, 5:15 PM)100% (Apr 19, 5:15 AM)30.26 "Hg (Apr 19, 5:15 AM)
Low51 °F (Apr 18, 8:15 AM)7% (Apr 27, 6:35 PM)29.60 "Hg (Apr 26, 4:15 PM)
Average70 °F47%29.92 "Hg
* Reported Apr 16 3:15 PM — May 1 3:15 PM, Midland, Weather by CustomWeather, © 2016

Note: Actual official high and low records may vary slightly from our data, if they occured in-between our weather recording intervals... More about our weather records

Advertising

Midland Weather History for the Previous 24 Hours

Scroll right to see more
 ConditionsComfort  
Time TempWeatherWind HumidityBarometerVisibility
3:15 PM
Sun, May 1
58 °FOvercast.13 mph44%30.09 "Hg10 mi
2:55 PM58 °FOvercast.10 mph44%30.09 "Hg10 mi
2:15 PM57 °FOvercast.12 mph43%30.10 "Hg10 mi
1:55 PM57 °FOvercast.10 mph44%30.10 "Hg10 mi
1:35 PM56 °FOvercast.14 mph43%30.10 "Hg10 mi
1:15 PM56 °FOvercast.16 mph44%30.10 "Hg10 mi
12:55 PM55 °FOvercast.16 mph45%30.10 "Hg10 mi
12:35 PM55 °FOvercast.13 mph45%30.10 "Hg10 mi
12:15 PM55 °FOvercast.17 mph45%30.10 "Hg10 mi
11:55 AM55 °FOvercast.18 mph45%30.09 "Hg10 mi
11:35 AM54 °FOvercast.20 mph47%30.09 "Hg10 mi
11:15 AM53 °FOvercast.16 mph48%30.10 "Hg10 mi
10:55 AM53 °FOvercast.16 mph48%30.09 "Hg10 mi
10:35 AM54 °FOvercast.20 mph47%30.10 "Hg10 mi
10:15 AM53 °FOvercast.20 mph47%30.11 "Hg10 mi
9:55 AM53 °FCloudy.20 mph46%30.09 "Hg10 mi
9:35 AM54 °FBroken clouds.24 mph45%30.07 "Hg10 mi
9:15 AM53 °FPartly sunny.25 mph51%30.07 "Hg10 mi
8:55 AM52 °FOvercast.17 mph53%30.09 "Hg7 mi
8:35 AM52 °FOvercast.16 mph54%30.10 "Hg7 mi
8:15 AM52 °FOvercast.20 mph54%30.07 "Hg7 mi
7:55 AM52 °FOvercast.20 mph54%30.05 "Hg7 mi
7:35 AM52 °FOvercast.16 mph54%30.03 "Hg5 mi
7:15 AM52 °FOvercast.21 mph54%30.01 "Hg10 mi
6:55 AM53 °FOvercast.22 mph53%30.01 "Hg7 mi
6:35 AM54 °FOvercast.23 mph53%29.99 "Hg7 mi
6:15 AM54 °FPassing clouds.22 mph53%29.98 "Hg7 mi
5:55 AM54 °FPassing clouds.23 mph55%29.97 "Hg7 mi
5:15 AM56 °FPassing clouds.25 mph55%29.95 "Hg7 mi
4:55 AM56 °FPassing clouds.23 mph55%29.94 "Hg7 mi
4:35 AM57 °FPassing clouds.22 mph57%29.94 "Hg10 mi
4:15 AM58 °FPassing clouds.21 mph60%29.93 "Hg7 mi
3:55 AM59 °FClear.22 mph59%29.93 "Hg10 mi
3:15 AM60 °FClear.16 mph63%29.91 "Hg7 mi
2:55 AM60 °FClear.14 mph60%29.91 "Hg10 mi
1:55 AM61 °FClear.8 mph56%29.91 "Hg10 mi
1:15 AM64 °FClear.9 mph48%29.90 "Hg10 mi
12:55 AM64 °FClear.7 mph45%29.89 "Hg10 mi
12:15 AM66 °FClear.9 mph39%29.86 "Hg10 mi
11:15 PM
Sat, Apr 30
68 °FClear.13 mph35%29.85 "Hg10 mi
10:55 PM68 °FClear.10 mph35%29.85 "Hg10 mi
10:15 PM70 °FClear.9 mph34%29.83 "Hg10 mi
9:15 PM73 °FSunny.12 mph27%29.81 "Hg10 mi
8:55 PM75 °FSunny.10 mph18%29.80 "Hg10 mi
8:35 PM76 °FSunny.6 mph17%29.78 "Hg10 mi
8:15 PM78 °FSunny.5 mph15%29.78 "Hg10 mi
7:55 PM79 °FSunny.No wind14%29.77 "Hg10 mi
7:15 PM81 °FSunny.No wind13%29.76 "Hg10 mi
6:55 PM81 °FSunny.3 mph13%29.76 "Hg10 mi
6:35 PM81 °FSunny.8 mph13%29.76 "Hg10 mi
6:15 PM81 °FSunny.8 mph13%29.76 "Hg10 mi
5:55 PM81 °FSunny.7 mph14%29.77 "Hg10 mi
5:15 PM81 °FSunny.No wind15%29.77 "Hg10 mi
4:55 PM80 °FSunny.3 mph17%29.78 "Hg10 mi
4:35 PM78 °FSunny.6 mph18%29.78 "Hg10 mi
4:15 PM80 °FScattered clouds.8 mph17%29.79 "Hg10 mi
Weather by CustomWeather, © 2016

See weather overviewHow to use our weather pages